METEOR 2-5 DEB, 28974

Orbit data source: Space-Track

METEOR 2-5 DEB, 28974 is space debris in LEO originally from a launch on Wed, 31 Oct 1979 UTC launched from the Plesetsk Missile And Space Complex (PKMTR). Debris objects in space refer to the collection of defunct objects orbiting the Earth. Examples of debris include non-operational satellites, rocket bodies, and fragments generated from explosions, collisions, or faulty payload assembly.

Loading next visibility...
Identifier
28974, 1979-095K
Orbit
LEO
Country
Flag of CISCIS
Related business
Manufacturer
Unknown
Mission
Spacecraft
Bus & Motor
Unknown
Mass
Unknown
Launch date (UTC)
1979-10-31 (47 years ago)
Launch vehicle
Unknown
Launch site
Plesetsk Missile And Space Complex (PKMTR)
Object type
Payload
Rocket body
Debris
Shape & HBR
Unknown shape, 0.1 m
Radar Cross Section
Small (<0.1 m²)

Expand to show TLE details & history
Last TLE update: 3 days ago

TLE from 3 days ago
0 METEOR 2-5 DEB
1 28974U 79095K   26171.06578398  .00005600  00000-0  14702-2 0  9990
2 28974  81.1952  87.7759 0015627 285.6463  74.3005 14.49031209 50687
Epoch: 2026-06-20T01:34Z
TLE epoch observation values (Epoch: 2026-06-20T01:34:43.735Z)
Latitude
-0°
Longitude
155.80792°
Altitude
728.776 km
Speed
7.492 km/s
True Right ascension
05h 51m 06s
True Declination
0° 00' 00"
Sunlit
Object was in daylight at epoch
Visualization orbit readout
Latitude
Unknown
Longitude
Unknown
Altitude
Unknown
Speed
Unknown
Apparent Right ascension
Unknown
Apparent Declination
Unknown
Sunlit
N/A
Visualization observer readout
Local Sidereal Time
04:00:01
Azimuth
Unknown
Elevation
Unknown
Doppler factor
Unknown
Orbital elements
Apogee altitude
737.041 km
Perigee altitude
714.837 km
Semi-major axis
7,104.076 km
Eccentricity
0.00156
Inclination
81.1952°
RAAN
87.7759°
Arg. of periapsis
285.6463°
True anomaly
74.47298°
Mean anomaly
74.3005°
Eccentric anomaly
74.38673°
Mean motion
3.62478 °/min
Orbital period
99.32 mins
BSTAR
0.0014702
Loading maneuver chart data...
Computing Atmospheric mass density...

Documentation

Showing up to 5 results
|